| time (UTC) | temp F | wind direction | speed knots | gust knots | rain 1hr in | rain 24hr in | rain mn in | humidity % | barometer mb |
| 20260903084601 | 79 | 0 | 0.0 | 0.9 | 0.00 | 0.20 | 0.00 | 94 | 1012.1 |
| 20260903083109 | 78 | 0 | 0.0 | 0.0 | 0.00 | 0.20 | 0.00 | 94 | 1012.2 |
| 20260903081603 | 78 | 0 | 0.0 | 0.0 | 0.00 | 0.20 | 0.00 | 94 | 1012.3 |
| 20260903080108 | 78 | 0 | 0.0 | 0.0 | 0.00 | 0.20 | 0.00 | 94 | 1012.2 |
| 20260903074601 | 78 | 0 | 0.0 | 0.9 | 0.00 | 0.20 | 0.00 | 94 | 1011.7 |
| 20260903073101 | 78 | 0 | 0.0 | 1.7 | 0.00 | 0.20 | 0.00 | 94 | 1011.9 |
| 20260903071605 | 78 | 0 | 0.0 | 0.9 | 0.00 | 0.20 | 0.00 | 94 | 1011.9 |
| 20260903070105 | 78 | 0 | 0.0 | 0.9 | 0.00 | 0.20 | 0.00 | 94 | 1011.9 |
| 20260903064601 | 78 | 0 | 0.0 | 0.9 | 0.00 | 0.20 | 0.00 | 94 | 1012.0 |
| 20260903063104 | 77 | 0 | 0.0 | 0.0 | 0.00 | 0.20 | 0.00 | 94 | 1012.0 |
| 20260903061608 | 77 | 0 | 0.0 | 0.9 | 0.00 | 0.20 | 0.00 | 93 | 1012.2 |
| 20260903060109 | 77 | 0 | 0.0 | 1.7 | 0.00 | 0.20 | 0.00 | 93 | 1012.1 |
| 20260903054607 | 77 | 0 | 0.0 | 1.7 | 0.00 | 0.20 | 0.00 | 93 | 1012.0 |
| 20260903053104 | 77 | 0 | 0.0 | 1.7 | 0.00 | 0.20 | 0.00 | 93 | 1012.1 |
| 20260903051605 | 76 | 0 | 0.0 | 1.7 | 0.00 | 0.20 | 0.00 | 93 | 1012.4 |
| 20260903050104 | 76 | 0 | 0.0 | 1.7 | 0.00 | 0.20 | 0.00 | 93 | 1012.5 |
| 20260903044559 | 76 | 128 | 0.0 | 1.7 | 0.00 | 0.20 | 0.20 | 92 | 1012.7 |
| 20260903043100 | 76 | 0 | 0.0 | 1.7 | 0.01 | 0.20 | 0.20 | 92 | 1012.5 |
| 20260903041616 | 76 | 0 | 0.0 | 2.6 | 0.01 | 0.20 | 0.20 | 91 | 1012.7 |
| 20260903034604 | 76 | 0 | 0.0 | 1.7 | 0.06 | 0.20 | 0.20 | 91 | 1012.8 |
| 20260903033104 | 76 | 115 | 0.0 | 3.5 | 0.13 | 0.19 | 0.19 | 90 | 1012.8 |
| 20260903031601 | 78 | 145 | 0.0 | 2.6 | 0.19 | 0.19 | 0.19 | 90 | 1012.8 |
| 20260903030100 | 78 | 103 | 0.9 | 3.5 | 0.18 | 0.18 | 0.18 | 90 | 1012.6 |
| 20260903024601 | 79 | 0 | 0.0 | 3.5 | 0.14 | 0.14 | 0.14 | 89 | 1012.6 |
| 20260903023125 | 79 | 0 | 0.0 | 3.5 | 0.06 | 0.06 | 0.06 | 88 | 1012.9 |
| 20260903021607 | 80 | 0 | 0.0 | 3.5 | 0.00 | 0.00 | 0.00 | 87 | 1012.4 |
| 20260903020104 | 80 | 192 | 1.7 | 6.1 | 0.00 | 0.00 | 0.00 | 86 | 1010.8 |
| 20260903014611 | 82 | 67 | 1.7 | 4.3 | 0.00 | 0.00 | 0.00 | 84 | 1010.6 |
| 20260903013107 | 82 | 82 | 0.9 | 2.6 | 0.00 | 0.00 | 0.00 | 82 | 1010.9 |
| 20260903011613 | 83 | 113 | 0.9 | 5.2 | 0.00 | 0.00 | 0.00 | 80 | 1010.3 |
| 20260903010106 | 83 | 69 | 1.7 | 4.3 | 0.00 | 0.00 | 0.00 | 78 | 1010.3 |
| 20260903004619 | 83 | 74 | 1.7 | 4.3 | 0.00 | 0.00 | 0.00 | 76 | 1010.3 |
| 20260903003108 | 84 | 70 | 1.7 | 7.0 | 0.00 | 0.00 | 0.00 | 75 | 1010.3 |
| 20260903001625 | 85 | 360 | 2.6 | 6.1 | 0.00 | 0.00 | 0.00 | 73 | 1010.1 |
| 20260903000100 | 87 | 67 | 2.6 | 8.7 | 0.00 | 0.00 | 0.00 | 71 | 1010.3 |
| 20260902234607 | 88 | 73 | 1.7 | 6.1 | 0.00 | 0.00 | 0.00 | 68 | 1010.4 |
| 20260902233102 | 90 | 69 | 0.9 | 6.1 | 0.00 | 0.00 | 0.00 | 66 | 1009.8 |
| 20260902231605 | 92 | 71 | 1.7 | 6.1 | 0.00 | 0.00 | 0.00 | 62 | 1010.1 |
| 20260902230104 | 96 | 73 | 1.7 | 6.1 | 0.00 | 0.00 | 0.00 | 56 | 1009.9 |
| 20260902224603 | 99 | 78 | 0.9 | 5.2 | 0.00 | 0.00 | 0.00 | 50 | 1009.8 |
| 20260902223106 | 100 | 0 | 0.0 | 1.7 | 0.00 | 0.00 | 0.00 | 44 | 1009.4 |
| 20260902221605 | 100 | 210 | 0.0 | 1.7 | 0.00 | 0.00 | 0.00 | 44 | 1009.3 |
| 20260902220059 | 100 | 211 | 0.0 | 1.7 | 0.00 | 0.00 | 0.00 | 42 | 1009.4 |
| 20260902214607 | 100 | 0 | 0.0 | 1.7 | 0.00 | 0.00 | 0.00 | 41 | 1009.3 |
| 20260902213109 | 100 | 191 | 0.0 | 1.7 | 0.00 | 0.00 | 0.00 | 43 | 1009.6 |
| 20260902211609 | 100 | 0 | 0.0 | 1.7 | 0.00 | 0.00 | 0.00 | 43 | 1009.7 |
| 20260902210059 | 101 | 192 | 0.0 | 2.6 | 0.00 | 0.00 | 0.00 | 41 | 1009.9 |
| 20260902204608 | 100 | 187 | 0.0 | 2.6 | 0.00 | 0.00 | 0.00 | 42 | 1009.9 |
| 20260902203101 | 100 | 0 | 0.0 | 2.6 | 0.00 | 0.00 | 0.00 | 43 | 1010.1 |
| 20260902201609 | 100 | 0 | 0.9 | 2.6 | 0.00 | 0.00 | 0.00 | 44 | 1010.2 |
| 20260902200059 | 100 | 0 | 0.0 | 2.6 | 0.00 | 0.00 | 0.00 | 44 | 1010.3 |
| 20260902194605 | 100 | 206 | 0.9 | 2.6 | 0.00 | 0.00 | 0.00 | 43 | 1010.6 |
| 20260902193105 | 101 | 216 | 0.0 | 3.5 | 0.00 | 0.00 | 0.00 | 42 | 1010.7 |
| 20260902191601 | 100 | 0 | 0.9 | 2.6 | 0.00 | 0.00 | 0.00 | 43 | 1011.4 |
| 20260902190100 | 98 | 0 | 0.0 | 2.6 | 0.00 | 0.00 | 0.00 | 46 | 1011.4 |
| 20260902184602 | 98 | 236 | 0.0 | 1.7 | 0.00 | 0.00 | 0.00 | 46 | 1011.8 |
| 20260902183105 | 97 | 0 | 0.0 | 2.6 | 0.00 | 0.00 | 0.00 | 48 | 1012.1 |
| 20260902181604 | 96 | 155 | 0.9 | 2.6 | 0.00 | 0.00 | 0.00 | 49 | 1012.2 |
| 20260902180104 | 97 | 0 | 0.9 | 2.6 | 0.00 | 0.00 | 0.00 | 49 | 1012.7 |
| 20260902174608 | 96 | 0 | 0.0 | 2.6 | 0.00 | 0.00 | 0.00 | 50 | 1013.1 |
| 20260902173104 | 95 | 246 | 0.9 | 2.6 | 0.00 | 0.00 | 0.00 | 52 | 1013.3 |
| 20260902171610 | 93 | 360 | 0.0 | 2.6 | 0.00 | 0.00 | 0.00 | 57 | 1013.6 |
| 20260902170107 | 91 | 0 | 0.0 | 1.7 | 0.00 | 0.00 | 0.00 | 60 | 1013.9 |
| 20260902164605 | 91 | 202 | 0.9 | 5.2 | 0.00 | 0.00 | 0.00 | 58 | 1013.9 |
| 20260902163101 | 92 | 0 | 0.0 | 3.5 | 0.00 | 0.00 | 0.00 | 60 | 1014.0 |
| 20260902161611 | 90 | 0 | 0.9 | 2.6 | 0.00 | 0.00 | 0.00 | 63 | 1013.9 |
| 20260902160122 | 89 | 82 | 0.9 | 4.3 | 0.00 | 0.00 | 0.00 | 66 | 1013.8 |
| 20260902154601 | 88 | 21 | 0.9 | 3.5 | 0.00 | 0.00 | 0.00 | 68 | 1013.9 |
| 20260902153102 | 86 | 163 | 0.0 | 3.5 | 0.00 | 0.00 | 0.00 | 71 | 1013.8 |
| 20260902151614 | 85 | 35 | 0.9 | 1.7 | 0.00 | 0.00 | 0.00 | 74 | 1014.0 |
| 20260902150104 | 84 | 0 | 0.0 | 1.7 | 0.00 | 0.00 | 0.00 | 76 | 1014.0 |
| 20260902144606 | 83 | 234 | 0.0 | 1.7 | 0.00 | 0.00 | 0.00 | 78 | 1013.8 |
| 20260902143108 | 81 | 205 | 0.0 | 1.7 | 0.00 | 0.00 | 0.00 | 80 | 1014.1 |
| 20260902141602 | 81 | 0 | 0.0 | 0.0 | 0.00 | 0.00 | 0.00 | 81 | 1014.1 |
| 20260902134601 | 80 | 0 | 0.0 | 0.9 | 0.00 | 0.00 | 0.00 | 82 | 1014.1 |
| 20260902133107 | 79 | 0 | 0.0 | 0.0 | 0.00 | 0.00 | 0.00 | 82 | 1014.2 |
| 20260902131605 | 79 | 0 | 0.0 | 0.9 | 0.00 | 0.00 | 0.00 | 82 | 1013.9 |
| 20260902124603 | 79 | 0 | 0.0 | 0.0 | 0.00 | 0.00 | 0.00 | 82 | 1013.3 |
| 20260902123111 | 79 | 0 | 0.0 | 0.0 | 0.00 | 0.00 | 0.00 | 82 | 1013.1 |
| 20260902121604 | 79 | 0 | 0.0 | 0.0 | 0.00 | 0.00 | 0.00 | 82 | 1013.1 |
| 20260902114603 | 79 | 0 | 0.0 | 0.0 | 0.00 | 0.00 | 0.00 | 80 | 1013.0 |
| 20260902113059 | 79 | 0 | 0.0 | 0.0 | 0.00 | 0.00 | 0.00 | 80 | 1012.8 |
| 20260902111606 | 79 | 0 | 0.0 | 0.0 | 0.00 | 0.00 | 0.00 | 80 | 1012.9 |
| 20260902110108 | 79 | 0 | 0.0 | 0.0 | 0.00 | 0.00 | 0.00 | 80 | 1013.0 |
| 20260902104609 | 79 | 0 | 0.0 | 0.0 | 0.00 | 0.00 | 0.00 | 81 | 1012.9 |
| 20260902103059 | 79 | 0 | 0.0 | 0.0 | 0.00 | 0.00 | 0.00 | 80 | 1013.1 |
| 20260902101600 | 79 | 0 | 0.0 | 0.0 | 0.00 | 0.00 | 0.00 | 80 | 1013.1 |
| 20260902100100 | 79 | 0 | 0.0 | 0.0 | 0.00 | 0.00 | 0.00 | 80 | 1013.1 |
| 20260902094601 | 79 | 0 | 0.0 | 0.0 | 0.00 | 0.00 | 0.00 | 79 | 1013.0 |
| 20260902093059 | 79 | 0 | 0.0 | 0.0 | 0.00 | 0.00 | 0.00 | 79 | 1012.9 |
| 20260902091603 | 79 | 0 | 0.0 | 0.0 | 0.00 | 0.00 | 0.00 | 79 | 1013.0 |
| 20260902090101 | 79 | 0 | 0.0 | 0.0 | 0.00 | 0.00 | 0.00 | 80 | 1012.8 |